Home   Weather   Bunbury   Past weeks

Flag for Australia Past Weather in Bunbury, Western Australia, Australia — Yesterday and Last 2 Weeks

Now
56 °F

Cool.


Feels Like: 54 °F
Forecast: 54 / 78 °F
Wind: 7 mph from Southeast

Location: Bunbury

Current Time: Jan 24, 2017 at 4:59:53 am

Latest Report: Jan 24, 2017 at 3:00 am


Visibility: N/A

Pressure: 30.09 "Hg

Humidity: 66%

Dew Point: 45 °F

Location of BunburyLocation

Past Weather in Bunbury — Graph

°F

Bunbury Temperature Yesterday

Maximum temperature yesterday: 74 °F (at 6:00 pm)
Minimum temperature yesterday: 49 °F (at 5:00 am)
Average temperature yesterday: 64 °F

High & Low Weather Summary for the Past Weeks

 TemperatureHumidityPressure
High93 °F (Jan 10, 5:00 pm)90% (Jan 14, 6:00 am)30.12 "Hg (Jan 14, 6:00 am)
Low49 °F (Jan 23, 5:00 am)20% (Jan 9, 12:00 pm)29.62 "Hg (Jan 11, 6:00 pm)
Average69 °F58%29.87 "Hg
* Reported Jan 9 3:00 am — Jan 24 3:00 am, Bunbury, Weather by CustomWeather, © 2017

Note: Actual official high and low records may vary slightly from our data, if they occured in-between our weather recording intervals... More about our weather records

Advertising

Bunbury Weather History for the Previous 24 Hours

Scroll right to see more
 ConditionsComfort  
Time TempWeatherWind HumidityBarometerVisibility
3:00 am
Tue, Jan 24
56 °FCool.7 mph66%30.09 "HgN/A
2:00 am56 °FCool.6 mph65%30.10 "HgN/A
12:00 am56 °FCool.6 mph61%30.12 "HgN/A
11:00 pm
Mon, Jan 23
58 °FRefreshingly cool.7 mph58%30.11 "HgN/A
9:00 pm62 °FRefreshingly cool.12 mph49%30.10 "HgN/A
8:00 pm65 °FMild.12 mph47%30.07 "HgN/A
6:00 pm74 °FMild.12 mph34%30.01 "HgN/A
5:00 pm73 °FMild.13 mph49%29.99 "HgN/A
3:00 pm74 °FMild.15 mph46%30.01 "HgN/A
2:00 pm73 °FMild.14 mph42%30.02 "HgN/A
12:00 pm72 °FMild.15 mph46%30.03 "HgN/A
11:00 am72 °FMild.13 mph47%30.04 "HgN/A
9:00 am69 °FMild.9 mph53%30.04 "HgN/A
8:00 am65 °FMild.3 mph63%30.04 "HgN/A
6:00 am50 °FCool.No wind89%30.01 "HgN/A
5:00 am49 °FCool.1 mph87%29.98 "HgN/A
Weather by CustomWeather, © 2017

See weather overviewHow to use our weather pages